Flag for Germany Weather past 2 weeks in Göttingen, Lower Saxony, Germany

30 °F

Passing clouds.

Feels Like: 25 °F
Forecast: 32 / 42 °F
Wind: 5 mph from South

Location: Kassel / Calden

Current Time: Nov 27, 2015 at 6:45:37 PM

Latest Report: Nov 27, 2015 at 5:50 PM

Visibility: 6 mi

Pressure: 29.95 "Hg

Humidity: 100%

Dew point: 30 °F

Location of GöttingenLocation

Historic Weather in Göttingen — Graph


Göttingen temperature yesterday

Maximum temperature yesterday: 41 °F (at 11:20 AM)
Minimum temperature yesterday: 36 °F (at 9:50 PM)
Average temperature yesterday: 39 °F

Past Weeks' High & Low Weather Summary

High57 °F (Nov 15, 12:20 PM)100% (Nov 13, 3:20 PM)30.30 "Hg (Nov 13, 3:20 PM)
Low30 °F (Nov 27, 7:20 AM)51% (Nov 27, 3:50 PM)29.39 "Hg (Nov 21, 7:50 AM)
Average44 °F85%29.89 "Hg
* Reported Nov 12 5:20 PM — Nov 27 5:20 PM, Göttingen, Weather by CustomWeather, © 2015

Note: Actual official high and low records may vary slightly from our data, if they occured in-between our weather recording intervals... More about our weather records


Göttingen weather history for previous 24 hours

Time TempWeatherWind HumidityBarometerVisibility
5:20 PM
Fri, Nov 27
32 °FPassing clouds.7 mph93%29.95 "Hg6 mi
4:50 PM30 °FPassing clouds.10 mph100%29.98 "Hg6 mi
4:20 PM32 °FPassing clouds.9 mph100%29.98 "HgN/A
3:50 PM32 °FPassing clouds.6 mph51%29.98 "HgN/A
3:20 PM34 °FPassing clouds.8 mph93%29.98 "HgN/A
2:50 PM34 °FPassing clouds.7 mph100%30.01 "HgN/A
2:20 PM36 °FPassing clouds.9 mph93%30.01 "HgN/A
1:50 PM34 °FScattered clouds.6 mph100%30.01 "HgN/A
1:20 PM34 °FSleet. Scattered clouds.7 mph100%30.04 "HgN/A
12:50 PM34 °FFog.8 mph100%30.04 "Hg3 mi
12:20 PM34 °FPartly sunny.7 mph100%30.07 "Hg4 mi
11:50 AM34 °FFog.7 mph100%30.07 "Hg3 mi
11:20 AM32 °FIce fog.9 mph100%30.07 "Hg2 mi
10:50 AM32 °FIce fog.8 mph100%30.09 "Hg2 mi
10:20 AM30 °FIce fog.6 mph100%30.09 "Hg2 mi
9:50 AM30 °FIce fog.7 mph100%30.09 "Hg1 mi
9:20 AM30 °FIce fog.8 mph100%30.09 "Hg0 mi
8:50 AM30 °FIce fog.8 mph100%30.09 "Hg0 mi
7:50 AM30 °FIce fog.3 mph100%30.09 "Hg0 mi
7:20 AM30 °FIce fog.6 mph100%30.12 "Hg0 mi
9:50 PM
Thu, Nov 26
36 °FPassing clouds.1 mph100%30.15 "Hg6 mi
9:20 PM37 °FPassing clouds.2 mph100%30.15 "Hg6 mi
8:50 PM37 °FPassing clouds.3 mph100%30.15 "Hg6 mi
8:20 PM39 °FPassing clouds.3 mph93%30.12 "Hg6 mi
7:50 PM37 °FMostly cloudy.2 mph100%30.12 "Hg6 mi
7:20 PM37 °FMostly cloudy.3 mph100%30.12 "Hg6 mi
6:50 PM37 °FMostly cloudy.3 mph100%30.12 "Hg6 mi
6:20 PM37 °FMostly cloudy.3 mph100%30.12 "HgN/A
Weather by CustomWeather, © 2015

See weather overviewHow to use our weather pages